Skip Page Navigation
NASA JPL Caltech
NASA Logo - Jet Propulsion Laboratory + View the NASA Portal
+ Center for Near-Earth Object Studies
JPL Home Earth Solar System Stars & Galaxies Technology
JPL Solar System Dynamics
BODIES ORBITS EPHEMERIDES TOOLS PHYSICAL DATA DISCOVERY FAQ SITE MAP
JPL Small-Body Database Browser
Search: [ help ]  
86858 (2000 HS11)
Classification: Main-belt Asteroid          SPK-ID: 2086858
Ephemeris | Orbit Diagram | Orbital Elements | Mission Design | Physical Parameters | Discovery Circumstances | Close-Approach Data ]

[ show orbit diagram ]
Orbital Elements at Epoch 2459000.5 (2020-May-31.0) TDB
Reference: JPL 25 (heliocentric ecliptic J2000)
 Element Value Uncertainty (1-sigma)   Units 
e .1491345941797897 4.1997e-08  
a 2.303997083539148 1.0129e-08 au
q 1.960391413494118 9.9763e-08 au
i 3.835718464550281 4.5668e-06 deg
node 33.64326420568497 5.2869e-05 deg
peri 168.7757022071906 5.4438e-05 deg
M 279.7338762613822 1.4335e-05 deg
tp 2459285.307291615364
(2021-Mar-11.80729162)
5.1895e-05 TDB
period 1277.383536240226
3.50
8.4234e-06
2.306e-08
d
yr
n .2818260841685828 1.8584e-09 deg/d
Q 2.647602753584178 1.1639e-08 au
  Orbit Determination Parameters
   # obs. used (total)      595  
   data-arc span      9276 days (25.40 yr)  
   first obs. used      1994-09-05  
   last obs. used      2020-01-28  
   planetary ephem.      DE431  
   SB-pert. ephem.      SB431-N16  
   condition code      0  
   norm. resid. RMS      .55556  
   source      ORB  
   producer      Otto Matic  
   solution date      2020-Feb-23 20:56:02  

Additional Information
 Earth MOID = .957174 au 
 Jupiter MOID = 2.30934 au 
 T_jup = 3.571 
[ show covariance matrix ]

Ephemeris | Orbit Diagram | Orbital Elements | Mission Design | Physical Parameters | Discovery Circumstances | Close-Approach Data ]

Physical Parameter Table
Parameter Symbol Value Units Sigma Reference Notes
absolute magnitude H 16.3   n/a MPO453300  

86858 (2000 HS11)          Discovered 2000-Apr-28 by LINEAR at Socorro
Reference: 20040830/Numbers.arcLast Updated: 2004-09-06

[ show close-approach data ]
Alternate Designations
 2000 HS11 = 2000 GW72 = 2001 SG218 
Ephemeris | Orbit Diagram | Orbital Elements | Mission Design | Physical Parameters | Discovery Circumstances | Close-Approach Data ]
ABOUT SSD CREDITS/AWARDS PRIVACY/COPYRIGHT GLOSSARY LINKS
FirstGov 2020-Oct-29 17:21 UT
(server date/time)  
NASA Home Page
Site Manager:   Ryan S. Park
Webmaster  Alan B. Chamberlin